Year,Month,Day,Hour,Minute,Value (Times are PST for temperature in C)
2006,06,30,00,00,16.30
2006,06,30,00,01,16.30
2006,06,30,00,02,16.30
2006,06,30,00,03,16.30
2006,06,30,00,04,16.30
2006,06,30,00,05,16.30
2006,06,30,00,06,16.30
2006,06,30,00,07,16.30
2006,06,30,00,08,16.30
2006,06,30,00,09,16.20
2006,06,30,00,10,16.20
2006,06,30,00,11,16.20
2006,06,30,00,12,16.20
2006,06,30,00,13,16.20
2006,06,30,00,14,16.20
2006,06,30,00,15,16.20
2006,06,30,00,16,16.20
2006,06,30,00,17,16.10
2006,06,30,00,18,16.10
2006,06,30,00,19,16.10
2006,06,30,00,20,16.10
2006,06,30,00,21,16.10
2006,06,30,00,22,16.10
2006,06,30,00,23,16.10
2006,06,30,00,24,16.00
2006,06,30,00,25,16.00
2006,06,30,00,26,15.90
2006,06,30,00,27,15.90
2006,06,30,00,28,15.80
2006,06,30,00,29,15.80
2006,06,30,00,30,15.80
2006,06,30,00,31,15.80
2006,06,30,00,32,15.80
2006,06,30,00,33,15.80
2006,06,30,00,34,15.80
2006,06,30,00,35,15.80
2006,06,30,00,36,15.80
2006,06,30,00,37,15.80
2006,06,30,00,38,15.70
2006,06,30,00,39,15.70
2006,06,30,00,40,15.70
2006,06,30,00,41,15.70
2006,06,30,00,42,15.70
2006,06,30,00,43,15.70
2006,06,30,00,44,15.60
2006,06,30,00,45,15.60
2006,06,30,00,46,15.50
2006,06,30,00,47,15.40
2006,06,30,00,48,15.20
2006,06,30,00,49,15.10
2006,06,30,00,50,15.00
2006,06,30,00,51,15.00
2006,06,30,00,52,15.00
2006,06,30,00,53,15.00
2006,06,30,00,54,15.00
2006,06,30,00,55,15.00
2006,06,30,00,56,15.00
2006,06,30,00,57,14.90
2006,06,30,00,58,14.90
2006,06,30,00,59,14.80
2006,06,30,01,00,14.80
2006,06,30,01,01,14.80
2006,06,30,01,02,14.90
2006,06,30,01,03,14.90
2006,06,30,01,04,14.90
2006,06,30,01,05,15.00
2006,06,30,01,06,15.00
2006,06,30,01,07,15.00
2006,06,30,01,08,15.00
2006,06,30,01,09,15.00
2006,06,30,01,10,15.00
2006,06,30,01,11,15.00
2006,06,30,01,12,15.00
2006,06,30,01,13,15.00
2006,06,30,01,14,15.10
2006,06,30,01,15,15.10
2006,06,30,01,16,15.10
2006,06,30,01,17,15.10
2006,06,30,01,18,15.10
2006,06,30,01,19,15.00
2006,06,30,01,20,15.00
2006,06,30,01,21,15.00
2006,06,30,01,22,15.00
2006,06,30,01,23,15.00
2006,06,30,01,24,15.00
2006,06,30,01,25,15.00
2006,06,30,01,26,15.00
2006,06,30,01,27,15.00
2006,06,30,01,28,15.00
2006,06,30,01,29,15.00
2006,06,30,01,30,15.00
2006,06,30,01,31,15.00
2006,06,30,01,32,15.00
2006,06,30,01,33,15.00
2006,06,30,01,34,15.00
2006,06,30,01,35,15.00
2006,06,30,01,36,15.00
2006,06,30,01,37,15.00
2006,06,30,01,38,14.90
2006,06,30,01,39,14.80
2006,06,30,01,40,14.80
2006,06,30,01,41,14.70
2006,06,30,01,42,14.70
2006,06,30,01,43,14.70
2006,06,30,01,44,14.60
2006,06,30,01,45,14.60
2006,06,30,01,46,14.60
2006,06,30,01,47,14.60
2006,06,30,01,48,14.60
2006,06,30,01,49,14.60
2006,06,30,01,50,14.60
2006,06,30,01,51,14.60
2006,06,30,01,52,14.60
2006,06,30,01,53,14.60
2006,06,30,01,54,14.60
2006,06,30,01,55,14.60
2006,06,30,01,56,14.60
2006,06,30,01,57,14.60
2006,06,30,01,58,14.60
2006,06,30,01,59,14.60
2006,06,30,02,00,14.60
2006,06,30,02,01,14.50
2006,06,30,02,02,14.50
2006,06,30,02,03,14.40
2006,06,30,02,04,14.40
2006,06,30,02,05,14.40
2006,06,30,02,06,14.30
2006,06,30,02,07,14.30
2006,06,30,02,08,14.30
2006,06,30,02,09,14.20
2006,06,30,02,10,14.20
2006,06,30,02,11,14.10
2006,06,30,02,12,14.10
2006,06,30,02,13,14.00
2006,06,30,02,14,13.90
2006,06,30,02,15,13.90
2006,06,30,02,16,13.80
2006,06,30,02,17,13.80
2006,06,30,02,18,13.70
2006,06,30,02,19,13.70
2006,06,30,02,20,13.60
2006,06,30,02,21,13.60
2006,06,30,02,22,13.60
2006,06,30,02,23,13.50
2006,06,30,02,24,13.40
2006,06,30,02,25,13.40
2006,06,30,02,26,13.40
2006,06,30,02,27,13.30
2006,06,30,02,28,13.30
2006,06,30,02,29,13.20
2006,06,30,02,30,13.20
2006,06,30,02,31,13.20
2006,06,30,02,32,13.10
2006,06,30,02,33,13.10
2006,06,30,02,34,13.10
2006,06,30,02,35,13.00
2006,06,30,02,36,13.00
2006,06,30,02,37,13.00
2006,06,30,02,38,12.90
2006,06,30,02,39,12.90
2006,06,30,02,40,12.90
2006,06,30,02,41,12.90
2006,06,30,02,42,12.80
2006,06,30,02,43,12.80
2006,06,30,02,44,12.80
2006,06,30,02,45,12.80
2006,06,30,02,46,12.80
2006,06,30,02,47,12.70
2006,06,30,02,48,12.70
2006,06,30,02,49,12.70
2006,06,30,02,50,12.60
2006,06,30,02,51,12.60
2006,06,30,02,52,12.60
2006,06,30,02,53,12.50
2006,06,30,02,54,12.50
2006,06,30,02,55,12.50
2006,06,30,02,56,12.40
2006,06,30,02,57,12.40
2006,06,30,02,58,12.40
2006,06,30,02,59,12.40
2006,06,30,03,00,12.30
2006,06,30,03,01,12.30
2006,06,30,03,02,12.30
2006,06,30,03,03,12.30
2006,06,30,03,04,12.30
2006,06,30,03,05,12.20
2006,06,30,03,06,12.20
2006,06,30,03,07,12.20
2006,06,30,03,08,12.20
2006,06,30,03,09,12.20
2006,06,30,03,10,12.10
2006,06,30,03,11,12.10
2006,06,30,03,12,12.10
2006,06,30,03,13,12.10
2006,06,30,03,14,12.10
2006,06,30,03,15,12.10
2006,06,30,03,16,12.00
2006,06,30,03,17,12.00
2006,06,30,03,18,12.00
2006,06,30,03,19,11.90
2006,06,30,03,20,11.90
2006,06,30,03,21,11.90
2006,06,30,03,22,11.80
2006,06,30,03,23,11.80
2006,06,30,03,24,11.80
2006,06,30,03,25,11.80
2006,06,30,03,26,11.80
2006,06,30,03,27,11.70
2006,06,30,03,28,11.70
2006,06,30,03,29,11.60
2006,06,30,03,30,11.60
2006,06,30,03,31,11.60
2006,06,30,03,32,11.60
2006,06,30,03,33,11.60
2006,06,30,03,34,11.50
2006,06,30,03,35,11.50
2006,06,30,03,36,11.50
2006,06,30,03,37,11.50
2006,06,30,03,38,11.50
2006,06,30,03,39,11.40
2006,06,30,03,40,11.40
2006,06,30,03,41,11.40
2006,06,30,03,42,11.40
2006,06,30,03,43,11.40
2006,06,30,03,44,11.40
2006,06,30,03,45,11.40
2006,06,30,03,46,11.40
2006,06,30,03,47,11.40
2006,06,30,03,48,11.40
2006,06,30,03,49,11.40
2006,06,30,03,50,11.40
2006,06,30,03,51,11.40
2006,06,30,03,52,11.40
2006,06,30,03,53,11.30
2006,06,30,03,54,11.30
2006,06,30,03,55,11.30
2006,06,30,03,56,11.30
2006,06,30,03,57,11.30
2006,06,30,03,58,11.20
2006,06,30,03,59,11.20
2006,06,30,04,00,11.20
2006,06,30,04,01,11.20
2006,06,30,04,02,11.10
2006,06,30,04,03,11.10
2006,06,30,04,04,11.10
2006,06,30,04,05,11.10
2006,06,30,04,06,11.00
2006,06,30,04,07,11.00
2006,06,30,04,08,10.90
2006,06,30,04,09,10.90
2006,06,30,04,10,10.90
2006,06,30,04,11,10.90
2006,06,30,04,12,10.80
2006,06,30,04,13,10.80
2006,06,30,04,14,10.80
2006,06,30,04,15,10.80
2006,06,30,04,16,10.80
2006,06,30,04,17,10.70
2006,06,30,04,18,10.70
2006,06,30,04,19,10.70
2006,06,30,04,20,10.70
2006,06,30,04,21,10.70
2006,06,30,04,22,10.70
2006,06,30,04,23,10.60
2006,06,30,04,24,10.60
2006,06,30,04,25,10.60
2006,06,30,04,26,10.60
2006,06,30,04,27,10.50
2006,06,30,04,28,10.50
2006,06,30,04,29,10.50
2006,06,30,04,30,10.40
2006,06,30,04,31,10.40
2006,06,30,04,32,10.40
2006,06,30,04,33,10.40
2006,06,30,04,34,10.30
2006,06,30,04,35,10.30
2006,06,30,04,36,10.30
2006,06,30,04,37,10.30
2006,06,30,04,38,10.30
2006,06,30,04,39,10.30
2006,06,30,04,40,10.30
2006,06,30,04,41,10.30
2006,06,30,04,42,10.20
2006,06,30,04,43,10.20
2006,06,30,04,44,10.20
2006,06,30,04,45,10.20
2006,06,30,04,46,10.20
2006,06,30,04,47,10.20
2006,06,30,04,48,10.20
2006,06,30,04,49,10.20
2006,06,30,04,50,10.20
2006,06,30,04,51,10.20
2006,06,30,04,52,10.20
2006,06,30,04,53,10.20
2006,06,30,04,54,10.20
2006,06,30,04,55,10.10
2006,06,30,04,56,10.10
2006,06,30,04,57,10.10
2006,06,30,04,58,10.10
2006,06,30,04,59,10.10
2006,06,30,05,00,10.10
2006,06,30,05,01,10.10
2006,06,30,05,02,10.10
2006,06,30,05,03,10.10
2006,06,30,05,04,10.00
2006,06,30,05,05,10.00
2006,06,30,05,06,10.00
2006,06,30,05,07,10.00
2006,06,30,05,08,10.00
2006,06,30,05,09,10.00
2006,06,30,05,10,9.90
2006,06,30,05,11,9.90
2006,06,30,05,12,9.90
2006,06,30,05,13,9.90
2006,06,30,05,14,9.90
2006,06,30,05,15,9.90
2006,06,30,05,16,9.90
2006,06,30,05,17,9.90
2006,06,30,05,18,9.90
2006,06,30,05,19,9.80
2006,06,30,05,20,9.80
2006,06,30,05,21,9.80
2006,06,30,05,22,9.80
2006,06,30,05,23,9.80
2006,06,30,05,24,9.70
2006,06,30,05,25,9.70
2006,06,30,05,26,9.70
2006,06,30,05,27,9.70
2006,06,30,05,28,9.70
2006,06,30,05,29,9.60
2006,06,30,05,30,9.60
2006,06,30,05,31,9.60
2006,06,30,05,32,9.60
2006,06,30,05,33,9.60
2006,06,30,05,34,9.50
2006,06,30,05,35,9.50
2006,06,30,05,36,9.50
2006,06,30,05,37,9.40
2006,06,30,05,38,9.40
2006,06,30,05,39,9.40
2006,06,30,05,40,9.40
2006,06,30,05,41,9.40
2006,06,30,05,42,9.30
2006,06,30,05,43,9.30
2006,06,30,05,44,9.30
2006,06,30,05,45,9.30
2006,06,30,05,46,9.30
2006,06,30,05,47,9.30
2006,06,30,05,48,9.30
2006,06,30,05,49,9.30
2006,06,30,05,50,9.30
2006,06,30,05,51,9.30
2006,06,30,05,52,9.30
2006,06,30,05,53,9.30
2006,06,30,05,54,9.20
2006,06,30,05,55,9.20
2006,06,30,05,56,9.20
2006,06,30,05,57,9.20
2006,06,30,05,58,9.20
2006,06,30,05,59,9.20
2006,06,30,06,00,9.20
2006,06,30,06,01,9.10
2006,06,30,06,02,9.10
2006,06,30,06,03,9.10
2006,06,30,06,04,9.10
2006,06,30,06,05,9.10
2006,06,30,06,06,9.10
2006,06,30,06,07,9.10
2006,06,30,06,08,9.00
2006,06,30,06,09,9.00
2006,06,30,06,10,9.00
2006,06,30,06,11,9.00
2006,06,30,06,12,9.00
2006,06,30,06,13,8.90
2006,06,30,06,14,8.90
2006,06,30,06,15,8.90
2006,06,30,06,16,8.90
2006,06,30,06,17,8.90
2006,06,30,06,18,8.90
2006,06,30,06,19,8.90
2006,06,30,06,20,8.90
2006,06,30,06,21,8.90
2006,06,30,06,22,8.80
2006,06,30,06,23,8.80
2006,06,30,06,24,8.80
2006,06,30,06,25,8.80
2006,06,30,06,26,8.80
2006,06,30,06,27,8.80
2006,06,30,06,28,8.80
2006,06,30,06,29,8.80
2006,06,30,06,30,8.80
2006,06,30,06,31,8.80
2006,06,30,06,32,8.80
2006,06,30,06,33,8.80
2006,06,30,06,34,8.80
2006,06,30,06,35,8.80
2006,06,30,06,36,8.80
2006,06,30,06,37,8.80
2006,06,30,06,38,8.80
2006,06,30,06,39,8.80
2006,06,30,06,40,8.80
2006,06,30,06,41,8.80
2006,06,30,06,42,8.80
2006,06,30,06,43,8.80
2006,06,30,06,44,8.80
2006,06,30,06,45,8.80
2006,06,30,06,46,8.80
2006,06,30,06,47,8.80
2006,06,30,06,48,8.80
2006,06,30,06,49,8.80
2006,06,30,06,50,8.80
2006,06,30,06,51,8.80
2006,06,30,06,52,8.80
2006,06,30,06,53,8.80
2006,06,30,06,54,8.80
2006,06,30,06,55,8.80
2006,06,30,06,56,8.80
2006,06,30,06,57,8.80
2006,06,30,06,58,8.80
2006,06,30,06,59,8.90
2006,06,30,07,00,8.90
2006,06,30,07,01,9.00
2006,06,30,07,02,9.10
2006,06,30,07,03,9.10
2006,06,30,07,04,9.20
2006,06,30,07,05,9.30
2006,06,30,07,06,9.40
2006,06,30,07,07,9.50
2006,06,30,07,08,9.60
2006,06,30,07,09,9.70
2006,06,30,07,10,9.80
2006,06,30,07,11,9.90
2006,06,30,07,12,10.10
2006,06,30,07,13,10.20
2006,06,30,07,14,10.30
2006,06,30,07,15,10.40
2006,06,30,07,16,10.60
2006,06,30,07,17,10.70
2006,06,30,07,18,10.90
2006,06,30,07,19,11.10
2006,06,30,07,20,11.30
2006,06,30,07,21,11.50
2006,06,30,07,22,11.70
2006,06,30,07,23,11.90
2006,06,30,07,24,12.10
2006,06,30,07,25,12.30
2006,06,30,07,26,12.40
2006,06,30,07,27,12.50
2006,06,30,07,28,12.60
2006,06,30,07,29,12.70
2006,06,30,07,30,12.90
2006,06,30,07,31,13.00
2006,06,30,07,32,13.10
2006,06,30,07,33,13.30
2006,06,30,07,34,13.40
2006,06,30,07,35,13.60
2006,06,30,07,36,13.70
2006,06,30,07,37,13.80
2006,06,30,07,38,13.90
2006,06,30,07,39,14.00
2006,06,30,07,40,14.10
2006,06,30,07,41,14.20
2006,06,30,07,42,14.30
2006,06,30,07,43,14.40
2006,06,30,07,44,14.50
2006,06,30,07,45,14.70
2006,06,30,07,46,14.80
2006,06,30,07,47,15.00
2006,06,30,07,48,15.00
2006,06,30,07,49,15.00
2006,06,30,07,50,15.10
2006,06,30,07,51,15.20
2006,06,30,07,52,15.30
2006,06,30,07,53,15.40
2006,06,30,07,54,15.50
2006,06,30,07,55,15.60
2006,06,30,07,56,15.60
2006,06,30,07,57,15.70
2006,06,30,07,58,15.70
2006,06,30,07,59,15.70
2006,06,30,08,00,15.70
2006,06,30,08,01,15.70
2006,06,30,08,02,15.80
2006,06,30,08,03,15.80
2006,06,30,08,04,15.80
2006,06,30,08,05,15.80
2006,06,30,08,06,15.80
2006,06,30,08,07,15.80
2006,06,30,08,08,15.80
2006,06,30,08,09,15.80
2006,06,30,08,10,15.80
2006,06,30,08,11,15.90
2006,06,30,08,12,15.90
2006,06,30,08,13,15.90
2006,06,30,08,14,15.80
2006,06,30,08,15,15.90
2006,06,30,08,16,15.90
2006,06,30,08,17,16.00
2006,06,30,08,18,16.00
2006,06,30,08,19,16.10
2006,06,30,08,20,16.20
2006,06,30,08,21,16.30
2006,06,30,08,22,16.40
2006,06,30,08,23,16.50
2006,06,30,08,24,16.50
2006,06,30,08,25,16.60
2006,06,30,08,26,16.60
2006,06,30,08,27,16.70
2006,06,30,08,28,16.80
2006,06,30,08,29,16.80
2006,06,30,08,30,16.80
2006,06,30,08,31,16.90
2006,06,30,08,32,16.90
2006,06,30,08,33,16.90
2006,06,30,08,34,16.90
2006,06,30,08,35,17.00
2006,06,30,08,36,17.00
2006,06,30,08,37,17.00
2006,06,30,08,38,17.00
2006,06,30,08,39,17.00
2006,06,30,08,40,17.00
2006,06,30,08,41,17.00
2006,06,30,08,42,17.10
2006,06,30,08,43,17.10
2006,06,30,08,44,17.20
2006,06,30,08,45,17.20
2006,06,30,08,46,17.20
2006,06,30,08,47,17.30
2006,06,30,08,48,17.30
2006,06,30,08,49,17.40
2006,06,30,08,50,17.50
2006,06,30,08,51,17.60
2006,06,30,08,52,17.70
2006,06,30,08,53,17.70
2006,06,30,08,54,17.80
2006,06,30,08,55,17.80
2006,06,30,08,56,17.80
2006,06,30,08,57,17.90
2006,06,30,08,58,18.00
2006,06,30,08,59,18.00
2006,06,30,09,00,18.00
2006,06,30,09,01,18.10
2006,06,30,09,02,18.10
2006,06,30,09,03,18.20
2006,06,30,09,04,18.20
2006,06,30,09,05,18.30
2006,06,30,09,06,18.30
2006,06,30,09,07,18.30
2006,06,30,09,08,18.40
2006,06,30,09,09,18.40
2006,06,30,09,10,18.50
2006,06,30,09,11,18.50
2006,06,30,09,12,18.60
2006,06,30,09,13,18.70
2006,06,30,09,14,18.80
2006,06,30,09,15,18.90
2006,06,30,09,16,19.00
2006,06,30,09,17,19.10
2006,06,30,09,18,19.20
2006,06,30,09,19,19.30
2006,06,30,09,20,19.40
2006,06,30,09,21,19.50
2006,06,30,09,22,19.60
2006,06,30,09,23,19.70
2006,06,30,09,24,19.80
2006,06,30,09,25,19.90
2006,06,30,09,26,20.00
2006,06,30,09,27,20.10
2006,06,30,09,28,20.20
2006,06,30,09,29,20.30
2006,06,30,09,30,20.40
2006,06,30,09,31,20.60
2006,06,30,09,32,20.70
2006,06,30,09,33,20.80
2006,06,30,09,34,20.80
2006,06,30,09,35,20.80
2006,06,30,09,36,20.80
2006,06,30,09,37,20.80
2006,06,30,09,38,20.70
2006,06,30,09,39,20.70
2006,06,30,09,40,20.80
2006,06,30,09,41,20.80
2006,06,30,09,42,20.80
2006,06,30,09,43,20.70
2006,06,30,09,44,20.80
2006,06,30,09,45,20.70
2006,06,30,09,46,20.70
2006,06,30,09,47,20.60
2006,06,30,09,48,20.60
2006,06,30,09,49,20.50
2006,06,30,09,50,20.40
2006,06,30,09,51,20.40
2006,06,30,09,52,20.40
2006,06,30,09,53,20.50
2006,06,30,09,54,20.60
2006,06,30,09,55,20.70
2006,06,30,09,56,20.80
2006,06,30,09,57,20.90
2006,06,30,09,58,21.00
2006,06,30,09,59,21.10
2006,06,30,10,00,21.20
2006,06,30,10,01,21.30
2006,06,30,10,02,21.40
2006,06,30,10,03,21.50
2006,06,30,10,04,21.60
2006,06,30,10,05,21.80
2006,06,30,10,06,21.90
2006,06,30,10,07,22.10
2006,06,30,10,08,22.20
2006,06,30,10,09,22.20
2006,06,30,10,10,22.30
2006,06,30,10,11,22.30
2006,06,30,10,12,22.30
2006,06,30,10,13,22.40
2006,06,30,10,14,22.40
2006,06,30,10,15,22.40
2006,06,30,10,16,22.50
2006,06,30,10,17,22.60
2006,06,30,10,18,22.60
2006,06,30,10,19,22.60
2006,06,30,10,20,22.60
2006,06,30,10,21,22.60
2006,06,30,10,22,22.70
2006,06,30,10,23,22.80
2006,06,30,10,24,22.90
2006,06,30,10,25,22.90
2006,06,30,10,26,23.00
2006,06,30,10,27,23.10
2006,06,30,10,28,23.20
2006,06,30,10,29,23.30
2006,06,30,10,30,23.30
2006,06,30,10,31,23.40
2006,06,30,10,32,23.50
2006,06,30,10,33,23.60
2006,06,30,10,34,23.60
2006,06,30,10,35,23.70
2006,06,30,10,36,23.80
2006,06,30,10,37,23.80
2006,06,30,10,38,23.90
2006,06,30,10,39,24.00
2006,06,30,10,40,24.10
2006,06,30,10,41,24.10
2006,06,30,10,42,24.20
2006,06,30,10,43,24.20
2006,06,30,10,44,24.30
2006,06,30,10,45,24.30
2006,06,30,10,46,24.50
2006,06,30,10,47,24.50
2006,06,30,10,48,24.60
2006,06,30,10,49,24.60
2006,06,30,10,50,24.60
2006,06,30,10,51,24.60
2006,06,30,10,52,24.70
2006,06,30,10,53,24.70
2006,06,30,10,54,24.70
2006,06,30,10,55,24.70
2006,06,30,10,56,24.70
2006,06,30,10,57,24.70
2006,06,30,10,58,24.70
2006,06,30,10,59,24.80
2006,06,30,11,00,24.70
2006,06,30,11,01,24.60
2006,06,30,11,02,24.60
2006,06,30,11,03,24.60
2006,06,30,11,04,24.60
2006,06,30,11,05,24.50
2006,06,30,11,06,24.50
2006,06,30,11,07,24.50
2006,06,30,11,08,24.60
2006,06,30,11,09,24.60
2006,06,30,11,10,24.60
2006,06,30,11,11,24.60
2006,06,30,11,12,24.50
2006,06,30,11,13,24.50
2006,06,30,11,14,24.40
2006,06,30,11,15,24.40
2006,06,30,11,16,24.30
2006,06,30,11,17,24.40
2006,06,30,11,18,24.40
2006,06,30,11,19,24.50
2006,06,30,11,20,24.60
2006,06,30,11,21,24.70
2006,06,30,11,22,24.70
2006,06,30,11,23,24.80
2006,06,30,11,24,24.80
2006,06,30,11,25,24.80
2006,06,30,11,26,24.80
2006,06,30,11,27,24.80
2006,06,30,11,28,24.80
2006,06,30,11,29,24.90
2006,06,30,11,30,24.90
2006,06,30,11,31,25.00
2006,06,30,11,32,25.10
2006,06,30,11,33,25.20
2006,06,30,11,34,25.10
2006,06,30,11,35,25.10
2006,06,30,11,36,25.10
2006,06,30,11,37,25.20
2006,06,30,11,38,25.20
2006,06,30,11,39,25.30
2006,06,30,11,40,25.40
2006,06,30,11,41,25.40
2006,06,30,11,42,25.50
2006,06,30,11,43,25.70
2006,06,30,11,44,25.80
2006,06,30,11,45,25.90
2006,06,30,11,46,25.90
2006,06,30,11,47,25.90
2006,06,30,11,48,25.90
2006,06,30,11,49,25.90
2006,06,30,11,50,25.80
2006,06,30,11,51,25.80
2006,06,30,11,52,25.90
2006,06,30,11,53,26.00
2006,06,30,11,54,26.10
2006,06,30,11,55,26.20
2006,06,30,11,56,26.30
2006,06,30,11,57,26.50
2006,06,30,11,58,26.60
2006,06,30,11,59,26.70
2006,06,30,12,00,26.70
2006,06,30,12,01,26.50
2006,06,30,12,02,26.30
2006,06,30,12,03,26.10
2006,06,30,12,04,25.90
2006,06,30,12,05,25.80
2006,06,30,12,06,25.80
2006,06,30,12,07,25.70
2006,06,30,12,08,25.80
2006,06,30,12,09,25.80
2006,06,30,12,10,25.80
2006,06,30,12,11,25.80
2006,06,30,12,12,25.80
2006,06,30,12,13,25.90
2006,06,30,12,14,25.90
2006,06,30,12,15,26.00
2006,06,30,12,16,26.10
2006,06,30,12,17,26.20
2006,06,30,12,18,26.20
2006,06,30,12,19,26.20
2006,06,30,12,20,26.20
2006,06,30,12,21,26.20
2006,06,30,12,22,26.20
2006,06,30,12,23,26.20
2006,06,30,12,24,26.30
2006,06,30,12,25,26.40
2006,06,30,12,26,26.30
2006,06,30,12,27,26.20
2006,06,30,12,28,26.20
2006,06,30,12,29,26.20
2006,06,30,12,30,26.20
2006,06,30,12,31,26.20
2006,06,30,12,32,26.30
2006,06,30,12,33,26.20
2006,06,30,12,34,26.20
2006,06,30,12,35,26.20
2006,06,30,12,36,26.20
2006,06,30,12,37,26.20
2006,06,30,12,38,26.30
2006,06,30,12,39,26.50
2006,06,30,12,40,26.60
2006,06,30,12,41,26.70
2006,06,30,12,42,26.80
2006,06,30,12,43,26.80
2006,06,30,12,44,26.70
2006,06,30,12,45,26.60
2006,06,30,12,46,26.60
2006,06,30,12,47,26.50
2006,06,30,12,48,26.60
2006,06,30,12,49,26.70
2006,06,30,12,50,26.80
2006,06,30,12,51,27.00
2006,06,30,12,52,27.20
2006,06,30,12,53,27.40
2006,06,30,12,54,27.50
2006,06,30,12,55,27.50
2006,06,30,12,56,27.40
2006,06,30,12,57,27.50
2006,06,30,12,58,27.50
2006,06,30,12,59,27.60
2006,06,30,13,00,27.50
2006,06,30,13,01,27.40
2006,06,30,13,02,27.40
2006,06,30,13,03,27.50
2006,06,30,13,04,27.60
2006,06,30,13,05,27.70
2006,06,30,13,06,27.80
2006,06,30,13,07,27.90
2006,06,30,13,08,28.00
2006,06,30,13,09,27.80
2006,06,30,13,10,27.60
2006,06,30,13,11,27.30
2006,06,30,13,12,27.20
2006,06,30,13,13,27.10
2006,06,30,13,14,27.10
2006,06,30,13,15,27.20
2006,06,30,13,16,27.20
2006,06,30,13,17,27.30
2006,06,30,13,18,27.40
2006,06,30,13,19,27.40
2006,06,30,13,20,27.50
2006,06,30,13,21,27.60
2006,06,30,13,22,27.60
2006,06,30,13,23,27.60
2006,06,30,13,24,27.50
2006,06,30,13,25,27.40
2006,06,30,13,26,27.20
2006,06,30,13,27,27.10
2006,06,30,13,28,27.10
2006,06,30,13,29,27.10
2006,06,30,13,30,27.00
2006,06,30,13,31,26.90
2006,06,30,13,32,26.90
2006,06,30,13,33,26.80
2006,06,30,13,34,26.80
2006,06,30,13,35,26.70
2006,06,30,13,36,26.80
2006,06,30,13,37,26.80
2006,06,30,13,38,26.90
2006,06,30,13,39,26.90
2006,06,30,13,40,26.90
2006,06,30,13,41,26.90
2006,06,30,13,42,27.00
2006,06,30,13,43,26.90
2006,06,30,13,44,26.80
2006,06,30,13,45,26.80
2006,06,30,13,46,26.70
2006,06,30,13,47,26.70
2006,06,30,13,48,26.80
2006,06,30,13,49,26.80
2006,06,30,13,50,26.90
2006,06,30,13,51,27.00
2006,06,30,13,52,27.10
2006,06,30,13,53,27.10
2006,06,30,13,54,27.00
2006,06,30,13,55,26.90
2006,06,30,13,56,26.90
2006,06,30,13,57,26.90
2006,06,30,13,58,27.00
2006,06,30,13,59,27.10
2006,06,30,14,00,27.20
2006,06,30,14,01,27.30
2006,06,30,14,02,27.30
2006,06,30,14,03,27.20
2006,06,30,14,04,27.30
2006,06,30,14,05,27.20
2006,06,30,14,06,27.10
2006,06,30,14,07,27.10
2006,06,30,14,08,27.00
2006,06,30,14,09,26.90
2006,06,30,14,10,26.90
2006,06,30,14,11,26.90
2006,06,30,14,12,27.00
2006,06,30,14,13,27.10
2006,06,30,14,14,27.10
2006,06,30,14,15,27.20
2006,06,30,14,16,27.20
2006,06,30,14,17,27.20
2006,06,30,14,18,27.20
2006,06,30,14,19,27.30
2006,06,30,14,20,27.30
2006,06,30,14,21,27.20
2006,06,30,14,22,27.10
2006,06,30,14,23,27.10
2006,06,30,14,24,27.10
2006,06,30,14,25,27.10
2006,06,30,14,26,27.10
2006,06,30,14,27,27.10
2006,06,30,14,28,27.10
2006,06,30,14,29,27.20
2006,06,30,14,30,27.20
2006,06,30,14,31,27.20
2006,06,30,14,32,27.20
2006,06,30,14,33,27.20
2006,06,30,14,34,27.30
2006,06,30,14,35,27.30
2006,06,30,14,36,27.30
2006,06,30,14,37,27.30
2006,06,30,14,38,27.30
2006,06,30,14,39,27.30
2006,06,30,14,40,27.30
2006,06,30,14,41,27.20
2006,06,30,14,42,27.20
2006,06,30,14,43,27.30
2006,06,30,14,44,27.40
2006,06,30,14,45,27.40
2006,06,30,14,46,27.50
2006,06,30,14,47,27.60
2006,06,30,14,48,27.70
2006,06,30,14,49,27.70
2006,06,30,14,50,27.80
2006,06,30,14,51,27.80
2006,06,30,14,52,27.90
2006,06,30,14,53,28.00
2006,06,30,14,54,28.10
2006,06,30,14,55,28.10
2006,06,30,14,56,28.20
2006,06,30,14,57,28.20
2006,06,30,14,58,28.20
2006,06,30,14,59,28.20
2006,06,30,15,00,28.00
2006,06,30,15,01,28.00
2006,06,30,15,02,28.00
2006,06,30,15,03,27.90
2006,06,30,15,04,27.90
2006,06,30,15,05,27.90
2006,06,30,15,06,27.90
2006,06,30,15,07,27.90
2006,06,30,15,08,27.90
2006,06,30,15,09,27.80
2006,06,30,15,10,27.90
2006,06,30,15,11,27.90
2006,06,30,15,12,27.90
2006,06,30,15,13,27.80
2006,06,30,15,14,27.80
2006,06,30,15,15,27.80
2006,06,30,15,16,27.60
2006,06,30,15,17,27.60
2006,06,30,15,18,27.60
2006,06,30,15,19,27.60
2006,06,30,15,20,27.70
2006,06,30,15,21,27.80
2006,06,30,15,22,27.80
2006,06,30,15,23,27.80
2006,06,30,15,24,27.80
2006,06,30,15,25,27.70
2006,06,30,15,26,27.70
2006,06,30,15,27,27.60
2006,06,30,15,28,27.60
2006,06,30,15,29,27.60
2006,06,30,15,30,27.70
2006,06,30,15,31,27.80
2006,06,30,15,32,27.80
2006,06,30,15,33,27.80
2006,06,30,15,34,27.80
2006,06,30,15,35,27.90
2006,06,30,15,36,27.90
2006,06,30,15,37,27.80
2006,06,30,15,38,27.80
2006,06,30,15,39,27.70
2006,06,30,15,40,27.60
2006,06,30,15,41,27.60
2006,06,30,15,42,27.60
2006,06,30,15,43,27.60
2006,06,30,15,44,27.70
2006,06,30,15,45,27.70
2006,06,30,15,46,27.80
2006,06,30,15,47,27.80
2006,06,30,15,48,27.80
2006,06,30,15,49,27.80
2006,06,30,15,50,27.80
2006,06,30,15,51,27.80
2006,06,30,15,52,27.70
2006,06,30,15,53,27.80
2006,06,30,15,54,28.00
2006,06,30,15,55,28.10
2006,06,30,15,56,28.20
2006,06,30,15,57,28.40
2006,06,30,15,58,28.50
2006,06,30,15,59,28.50
2006,06,30,16,00,28.60
2006,06,30,16,01,28.60
2006,06,30,16,02,28.60
2006,06,30,16,03,28.50
2006,06,30,16,04,28.40
2006,06,30,16,05,28.40
2006,06,30,16,06,28.40
2006,06,30,16,07,28.50
2006,06,30,16,08,28.40
2006,06,30,16,09,28.30
2006,06,30,16,10,28.20
2006,06,30,16,11,28.10
2006,06,30,16,12,28.10
2006,06,30,16,13,28.10
2006,06,30,16,14,28.10
2006,06,30,16,15,28.10
2006,06,30,16,16,28.00
2006,06,30,16,17,28.00
2006,06,30,16,18,27.90
2006,06,30,16,19,27.90
2006,06,30,16,20,27.90
2006,06,30,16,21,27.90
2006,06,30,16,22,28.00
2006,06,30,16,23,28.00
2006,06,30,16,24,27.90
2006,06,30,16,25,27.80
2006,06,30,16,26,27.90
2006,06,30,16,27,28.00
2006,06,30,16,28,28.00
2006,06,30,16,29,28.10
2006,06,30,16,30,28.10
2006,06,30,16,31,28.10
2006,06,30,16,32,28.00
2006,06,30,16,33,28.00
2006,06,30,16,34,28.10
2006,06,30,16,35,28.20
2006,06,30,16,36,28.30
2006,06,30,16,37,28.40
2006,06,30,16,38,28.40
2006,06,30,16,39,28.40
2006,06,30,16,40,28.40
2006,06,30,16,41,28.40
2006,06,30,16,42,28.40
2006,06,30,16,43,28.30
2006,06,30,16,44,28.30
2006,06,30,16,45,28.30
2006,06,30,16,46,28.30
2006,06,30,16,47,28.30
2006,06,30,16,48,28.20
2006,06,30,16,49,28.10
2006,06,30,16,50,28.10
2006,06,30,16,51,28.20
2006,06,30,16,52,28.30
2006,06,30,16,53,28.40
2006,06,30,16,54,28.50
2006,06,30,16,55,28.60
2006,06,30,16,56,28.60
2006,06,30,16,57,28.60
2006,06,30,16,58,28.70
2006,06,30,16,59,28.80
2006,06,30,17,00,29.00
2006,06,30,17,01,29.10
2006,06,30,17,02,29.30
2006,06,30,17,03,29.40
2006,06,30,17,04,29.50
2006,06,30,17,05,29.60
2006,06,30,17,06,29.70
2006,06,30,17,07,29.70
2006,06,30,17,08,29.60
2006,06,30,17,09,29.40
2006,06,30,17,10,29.20
2006,06,30,17,11,29.00
2006,06,30,17,12,28.90
2006,06,30,17,13,28.90
2006,06,30,17,14,28.90
2006,06,30,17,15,28.90
2006,06,30,17,16,29.00
2006,06,30,17,17,29.10
2006,06,30,17,18,29.20
2006,06,30,17,19,29.20
2006,06,30,17,20,29.20
2006,06,30,17,21,29.20
2006,06,30,17,22,29.10
2006,06,30,17,23,29.20
2006,06,30,17,24,29.20